CAPE
5 13 58 76 80 63 6 0 0 1 0 1 2 0 19 33 55 51 21 12 15 3 0 1 0 0 0 0 0 0 4 0 0 0 0 0 0 0 0 0 0 0 0 0 0
9 6 15 46 80 82 42 9 1 1 0 0 2 1 2 7 58 42 8 11 12 11 0 2 0 0 0 0 0 7 0 0 0 0 0 0 0 0 0 0 0 0 0 0 0
20 17 12 17 40 61 101 31 1 3 0 0 0 1 0 0 43 13 30 51 68 52 13 14 10 0 0 0 0 0 0 0 0 0 0 0 0 0 0 0 0 0 0 0 0
17 21 20 11 15 25 82 111 9 5 3 0 0 0 0 4 15 22 0 33 83 78 34 12 9 2 0 0 0 0 0 0 0 0 0 0 0 0 0 0 0 0 0 0 0
11 14 13 21 8 13 26 89 49 10 4 0 0 0 0 8 2 0 0 0 0 75 58 14 17 9 2 0 0 0 0 0 0 0 0 0 0 0 0 0 0 0 0 0 0
18 12 21 39 24 9 8 37 105 33 8 0 0 0 0 0 0 0 0 0 4 40 39 25 25 18 22 10 0 1 0 0 0 0 0 0 0 0 0 0 0 0 0 0 0
23 27 14 37 36 26 4 25 113 60 28 4 0 0 3 0 0 0 0 0 12 13 52 23 9 0 19 8 7 1 1 0 0 0 0 0 0 0 0 0 0 0 0 0 0
37 31 40 33 47 40 14 17 55 95 42 2 0 1 0 0 0 0 0 0 0 61 52 50 17 22 23 14 2 0 1 0 0 0 0 0 0 0 0 0 0 0 0 0 0
59 46 42 61 59 53 22 22 12 105 66 34 20 7 5 0 0 0 0 10 8 7 46 43 33 31 38 24 5 6 0 0 0 0 0 0 0 0 0 0 0 0 0 0 0
86 86 70 76 79 59 43 19 15 92 62 60 21 4 0 0 0 0 0 18 12 13 32 23 16 3 1 19 5 3 2 0 0 0 0 0 0 0 0 0 0 0 0 0 0
114 105 138 123 123 66 56 13 136 47 55 22 0 0 0 0 0 0 0 16 13 14 4 1 4 1 0 12 6 0 0 0 0 0 0 0 0 0 0 0 0 0 0 0 0
105 92 150 175 151 91 78 10 20 21 4 0 0 3 0 0 1 0 0 7 2 5 4 7 10 0 1 0 0 0 0 0 0 0 0 0 0 0 0 0 0 0 0 0 0
71 31 87 156 143 73 73 0 4 1 21 15 5 2 0 0 6 2 1 7 9 8 0 10 0 0 0 0 0 0 0 0 0 0 0 0 0 0 0 0 0 0 0 0 0
32 58 112 89 79 55 72 54 29 0 7 6 11 2 2 1 3 8 0 4 8 1 4 8 1 0 0 0 0 1 0 0 0 1 0 0 0 0 0 0 0 0 0 0 0
67 90 62 63 57 66 63 48 19 4 23 8 13 9 10 0 2 10 3 12 5 9 0 0 0 6 3 0 2 1 2 0 2 6 0 0 1 0 0 0 0 0 0 0 0
69 91 116 78 87 50 74 47 28 3 24 11 12 11 6 13 10 18 16 17 9 7 7 5 1 5 7 1 3 2 1 1 4 8 7 0 0 0 0 0 0 0 0 0 0
87 25 213 58 42 72 77 9 7 21 0 23 16 19 10 3 12 24 17 17 8 24 13 8 3 1 2 5 6 10 14 2 4 18 0 0 0 0 0 0 0 0 0 0 0
48 36 171 81 73 140 28 4 44 8 5 3 26 27 18 4 13 5 6 22 11 4 2 2 5 3 0 4 4 1 12 0 0 0 0 0 0 0 0 0 0 0 0 0 0
58 65 157 157 111 31 31 24 69 5 4 11 33 27 19 13 7 18 19 14 12 7 1 4 0 0 8 5 3 8 13 1 15 7 5 0 0 0 0 0 0 0 0 0 0
27 35 90 93 74 45 42 1 24 5 0 14 6 2 11 16 13 6 11 4 0 3 5 3 4 0 8 7 1 5 4 4 16 6 1 0 0 0 0 4 2 0 4 13 0
6 52 117 55 35 8 20 54 37 7 3 8 3 2 1 8 6 3 1 0 1 1 7 0 2 1 2 4 1 3 13 14 8 15 9 3 0 0 0 0 0 47 33 31 13
22 9 78 45 53 21 53 26 10 9 0 3 7 3 3 5 8 7 0 0 0 0 2 2 0 7 0 0 0 5 0 5 29 0 3 8 3 0 0 2 45 51 48 17 0
33 24 87 56 121 73 18 22 16 8 3 3 5 1 0 6 1 7 1 0 0 0 4 2 8 3 1 0 0 1 0 0 12 17 12 25 1 0 0 0 5 68 20 2 0
52 18 16 21 25 41 28 27 19 17 5 0 0 0 0 2 0 3 0 0 0 0 0 8 6 0 0 14 5 2 3 5 4 17 5 5 1 0 12 19 3 3 14 12 10
114 18 8 33 73 29 25 13 16 14 1 1 0 1 0 1 5 2 2 1 0 0 0 6 22 6 8 4 2 4 4 1 3 3 3 0 1 0 5 9 7 13 11 1 0
11 32 20 16 9 26 3 3 17 5 7 8 7 0 0 3 3 1 0 3 2 3 6 9 24 24 10 0 0 8 0 4 9 6 6 3 3 3 1 0 0 0 5 6 5
9 7 32 10 25 17 0 4 14 6 3 0 2 2 4 4 0 1 1 3 3 2 7 14 21 20 1 0 0 8 2 4 8 11 13 16 3 9 3 4 2 0 0 4 15
CIN
-0 -5 -2 -0 -0 -0 -2 -0 -0 -0 -0 -0 -0 -0 -0 -2 -0 -0 -0 -1 -0 -0 -0 -0 -0 -0 -0 -0 -0 -0 -0 -0 -0 -0 -0 -0 -0 -0 -0 -0 -0 -0 -0 -0 -0
-0 -0 -0 -7 -0 -0 -0 -0 -0 -0 -0 -0 -0 -0 -5 -10 -0 -0 -0 -8 -18 -8 -0 -0 -0 -0 -0 -0 -0 -0 -0 -0 -0 -0 -0 -0 -0 -0 -0 -0 -0 -0 -0 -0 -0
-0 -0 -0 -0 -17 -0 -0 -0 -0 -0 -0 -0 -0 -0 -0 -0 -0 -0 -4 -2 -1 -0 -0 -0 -0 -0 -0 -0 -0 -0 -0 -0 -0 -0 -0 -0 -0 -0 -0 -0 -0 -0 -0 -0 -0
-0 -0 -0 -0 -0 -0 -0 -0 -4 -0 -0 -0 -0 -0 -0 -0 -0 -0 -0 -0 -0 -0 -0 -0 -0 -0 -0 -0 -0 -0 -0 -0 -0 -0 -0 -0 -0 -0 -0 -0 -0 -0 -0 -0 -0
-0 -0 -0 -0 -0 -0 -0 -0 -1 -4 -0 -0 -0 -0 -0 -0 -0 -0 -0 -0 -0 -2 -0 -0 -0 -0 -0 -0 -0 -0 -0 -0 -0 -0 -0 -0 -0 -0 -0 -0 -0 -0 -0 -0 -0
-0 -0 -0 -0 -0 -0 -0 -1 -0 -0 -0 -0 -0 -0 -0 -0 -0 -0 -0 -0 -0 -0 -0 -0 -1 -0 -0 -0 -0 -0 -0 -0 -0 -0 -0 -0 -0 -0 -0 -0 -0 -0 -0 -0 -0
-0 -0 -0 -0 -0 -0 -0 -0 -0 -0 -0 -0 -0 -0 -0 -0 -0 -0 -0 -0 -0 -0 -0 -3 -4 -3 -0 -0 -0 -0 -0 -0 -0 -0 -0 -0 -0 -0 -0 -0 -0 -0 -0 -0 -0
-0 -0 -0 -0 -0 -0 -0 -0 -0 -0 -0 -0 -0 -0 -0 -0 -0 -0 -0 -0 -0 -0 -0 -0 -3 -0 -0 -0 -0 -0 -0 -0 -0 -0 -0 -0 -0 -0 -0 -0 -0 -0 -0 -0 -0
-0 -0 -0 -0 -0 -0 -1 -0 -11 -0 -0 -0 -0 -0 -0 -0 -0 -0 -0 -0 -0 -0 -0 -0 -0 -0 -0 -0 -0 -0 -0 -0 -0 -0 -0 -0 -0 -0 -0 -0 -0 -0 -0 -0 -0
-0 -0 -0 -0 -0 -0 -0 -0 -3 -11 -0 -0 -0 -0 -0 -0 -0 -0 -0 -0 -0 -0 -0 -0 -0 -0 -1 -0 -0 -0 -0 -0 -0 -0 -0 -0 -0 -0 -0 -0 -0 -0 -0 -0 -0
-0 -0 -0 -0 -2 -2 -0 -0 -38 -0 -0 -0 -0 -0 -0 -0 -0 -0 -0 -0 -0 -0 -0 -0 -0 -0 -0 -0 -0 -0 -0 -0 -0 -0 -0 -0 -0 -0 -0 -0 -0 -0 -0 -0 -0
-0 -0 -0 -0 -1 -0 -0 -0 -0 -0 -1 -0 -0 -0 -0 -0 -0 -0 -0 -0 -1 -0 -1 -0 -0 -0 -0 -0 -0 -0 -0 -0 -0 -0 -0 -0 -0 -0 -0 -0 -0 -0 -0 -0 -0
-0 -0 -1 -0 -0 -0 -0 -1 -6 -5 -0 -0 -0 -0 -0 -0 -0 -0 -0 -0 -0 -0 -0 -0 -0 -0 -0 -0 -0 -0 -0 -0 -0 -0 -0 -0 -0 -0 -0 -0 -0 -0 -0 -0 -0
-0 -0 -0 -0 -0 -0 -0 -5 -1 -0 -0 -0 -0 -1 -0 -0 -0 -0 -0 -0 -0 -2 -0 -0 -2 -0 -0 -0 -0 -0 -0 -0 -0 -0 -0 -0 -0 -0 -0 -0 -0 -0 -0 -0 -0
-0 -1 -0 -6 -0 -0 -2 -0 -16 -10 -0 -0 -0 -0 -0 -0 -0 -0 -1 -0 -0 -0 -0 -0 -0 -0 -0 -0 -0 -0 -0 -0 -0 -0 -0 -0 -0 -0 -0 -0 -0 -0 -0 -0 -0
-0 -0 -4 -0 -0 -1 -0 -11 -1 -0 -0 -0 -0 -0 -0 -0 -0 -0 -0 -0 -1 -0 -1 -0 -0 -0 -0 -0 -0 -3 -0 -0 -0 -0 -0 -0 -0 -0 -0 -0 -0 -0 -0 -0 -0
-2 -1 -0 -23 -0 -0 -0 -92 -0 -0 -0 -0 -0 -0 -0 -0 -0 -0 -0 -0 -0 -0 -0 -0 -0 -0 -0 -0 -0 -0 -0 -0 -0 -0 -0 -0 -0 -0 -0 -0 -0 -0 -0 -0 -0
-0 -3 -2 -0 -0 -0 -8 -0 -0 -0 -0 -0 -0 -0 -0 -0 -0 -1 -0 -0 -0 -0 -0 -0 -0 -0 -0 -0 -0 -0 -0 -0 -0 -0 -0 -0 -0 -0 -0 -0 -0 -0 -0 -0 -0
-0 -9 -0 -0 -0 -1 -0 -3 -0 -0 -0 -0 -0 -0 -0 -0 -1 -0 -0 -0 -0 -0 -0 -0 -0 -0 -0 -0 -0 -0 -0 -0 -0 -0 -0 -0 -0 -0 -0 -0 -0 -0 -0 -0 -0
-0 -0 -0 -1 -0 -1 -0 -0 -0 -0 -0 -0 -0 -0 -0 -0 -0 -0 -0 -0 -0 -0 -0 -0 -0 -0 -0 -0 -1 -0 -1 -0 -0 -0 -0 -0 -0 -0 -0 -2 -8 -0 -8 -15 -0
-0 -0 -0 -0 -2 -0 -6 -0 -0 -0 -0 -0 -0 -0 -0 -0 -0 -0 -0 -0 -0 -0 -0 -0 -0 -0 -1 -0 -0 -0 -0 -0 -0 -0 -0 -0 -0 -0 -0 -0 -0 -3 -10 -19 -31
-0 -0 -1 -0 -0 -0 -0 -5 -0 -0 -0 -0 -0 -0 -0 -0 -0 -0 -0 -0 -0 -0 -0 -0 -1 -0 -0 -0 -0 -0 -0 -0 -0 -0 -0 -0 -0 -0 -0 -0 -4 -0 -0 -23 -3
-0 -0 -0 -0 -0 -0 -0 -0 -0 -0 -0 -0 -0 -0 -0 -0 -0 -0 -0 -0 -0 -0 -0 -0 -0 -0 -0 -0 -0 -0 -0 -0 -0 -0 -0 -0 -0 -0 -0 -0 -1 -1 -1 -1 -2
-2 -0 -1 -0 -0 -0 -0 -0 -0 -0 -4 -0 -0 -0 -0 -0 -0 -0 -0 -0 -0 -0 -24 -0 -0 -0 -0 -0 -2 -0 -0 -0 -0 -0 -0 -0 -0 -0 -0 -0 -9 -2 -8 -0 -4
-0 -9 -0 -0 -0 -1 -0 -0 -0 -0 -2 -18 -0 -0 -0 -0 -0 -0 -0 -0 -0 -0 -0 -0 -0 -0 -0 -0 -1 -0 -0 -0 -0 -0 -0 -0 -0 -0 -0 -1 -1 -1 -1 -0 -0
-0 -0 -1 -0 -1 -0 -2 -0 -0 -12 -4 -16 -12 -0 -0 -0 -0 -0 -0 -0 -0 -0 -0 -0 -0 -0 -0 -0 -0 -1 -0 -0 -0 -0 -0 -0 -0 -0 -0 -0 -0 -0 -0 -0 -0
-0 -0 -2 -0 -0 -0 -0 -0 -0 -5 -12 -0 -0 -0 -0 -0 -0 -9 -6 -0 -0 -0 -0 -0 -0 -0 -0 -0 -0 -0 -0 -0 -0 -0 -0 -0 -0 -0 -0 -0 -0 -13 -0 -0 -0
Wind_Speed
22 22 21 19 15 14 12 13 11 9 8 8 9 11 11 13 5 11 15 7 6 8 5 5 9 9 8 7 9 12 14 16 21 21 14 7 8 12 7 12 6 9 12 8 4
21 22 22 21 19 15 13 13 12 10 8 7 7 9 9 11 11 16 10 3 7 7 12 10 11 11 10 12 8 13 14 20 16 13 14 12 12 13 9 16 16 10 6 2 3
20 20 21 22 20 19 15 14 12 10 8 6 6 7 8 10 10 12 24 16 13 11 12 13 9 11 13 10 14 14 19 14 12 8 9 12 12 13 11 14 14 17 13 8 4
20 19 21 21 21 20 18 17 14 11 10 7 5 5 6 9 7 8 5 7 14 12 13 11 13 13 10 12 15 16 15 19 11 5 9 13 15 16 18 17 16 12 8 3 9
20 21 19 20 20 20 19 18 16 13 11 8 5 3 5 9 12 10 1 6 10 13 16 14 14 13 12 11 9 12 18 12 13 13 13 14 17 18 19 17 16 19 13 14 15
20 22 20 20 22 20 20 19 15 14 12 9 6 3 8 11 4 1 5 5 11 16 13 9 5 7 6 8 9 2 12 15 13 15 15 17 20 19 17 21 22 21 21 20 20
20 20 22 21 22 21 20 19 14 16 14 11 9 7 8 8 0 1 5 5 4 11 15 13 3 5 3 5 9 8 15 15 18 18 15 11 20 25 26 23 23 23 22 23 23
23 19 21 21 22 21 19 20 17 18 14 12 10 6 7 3 5 5 5 7 4 9 7 10 6 5 7 1 5 7 12 13 3 8 12 9 16 9 9 16 22 22 21 21 22
23 22 20 20 21 20 19 21 18 17 17 13 8 7 6 6 7 8 8 9 8 7 7 9 6 3 4 9 8 11 10 14 9 10 8 14 12 7 3 8 13 15 15 17 19
21 22 21 20 17 19 17 19 15 15 13 8 3 6 7 7 7 7 8 9 10 12 9 8 7 6 8 11 8 11 15 12 11 5 8 15 21 20 19 19 18 17 17 18 18
20 18 18 19 19 15 10 7 4 8 8 8 13 2 11 8 9 9 12 12 11 12 7 8 8 13 17 17 15 9 9 12 10 8 16 21 22 20 20 21 22 20 20 21 22
20 19 18 19 18 17 8 3 6 5 6 7 11 7 8 8 8 11 14 11 11 12 10 6 12 15 10 10 11 13 14 15 14 11 13 18 28 25 27 28 24 24 24 24 23
23 16 15 17 17 13 12 9 9 6 5 14 13 13 9 9 8 16 16 13 14 14 15 11 2 4 14 11 12 13 12 11 14 17 18 21 27 19 10 12 17 22 24 25 25
21 20 15 20 14 10 10 2 8 5 5 10 12 9 9 7 5 14 16 9 7 15 12 11 8 5 10 13 11 12 8 8 10 8 6 4 14 15 16 16 13 13 14 15 17
22 24 20 13 10 7 4 4 5 2 6 18 11 10 16 11 15 11 15 5 11 8 7 4 6 12 12 12 8 6 3 6 8 10 13 14 9 14 5 9 11 13 13 12 13
25 29 31 13 11 12 2 3 5 3 6 8 7 13 18 14 8 11 14 5 3 7 10 10 3 5 9 7 10 4 4 7 9 5 9 14 17 20 12 16 16 11 16 5 9
27 30 20 6 7 12 7 1 5 6 12 10 10 14 17 15 11 13 15 12 9 6 8 10 16 8 10 8 6 7 2 2 4 5 9 6 10 18 17 16 7 6 9 11 10
27 29 4 8 7 11 5 2 8 7 7 7 16 17 10 17 10 15 15 12 16 10 4 8 7 18 12 14 5 12 9 5 6 7 11 11 12 8 8 5 6 11 13 11 11
23 6 2 5 12 7 2 4 3 11 11 13 18 9 9 19 8 11 13 11 13 13 7 6 4 1 10 7 11 6 9 10 14 18 13 10 20 22 24 23 20 17 15 12 8
7 4 2 7 13 7 4 6 4 3 14 19 7 7 9 17 10 13 13 12 9 17 12 2 3 6 6 6 9 11 3 2 4 6 12 11 20 14 13 16 10 5 5 8 8
4 1 6 8 6 1 3 2 2 10 11 2 9 10 10 15 10 15 16 5 15 13 14 7 4 5 3 12 13 11 8 6 7 7 8 15 11 8 12 8 12 11 7 6 9
4 3 7 8 3 1 2 3 9 13 0 1 7 6 17 16 10 11 8 2 7 9 12 8 3 6 11 8 9 13 14 17 8 9 7 12 21 16 12 14 4 7 8 6 7
3 4 3 4 3 2 3 3 7 3 2 2 5 2 6 13 6 5 6 4 9 11 9 10 5 4 2 3 12 11 16 18 18 15 19 16 18 2 6 10 17 15 12 10 6
2 3 1 2 5 7 4 4 6 3 7 8 9 11 10 12 5 7 6 4 7 10 9 5 5 8 8 6 5 7 15 16 13 9 17 23 31 26 24 19 21 16 19 18 9
2 2 2 3 4 7 5 3 10 4 3 2 4 7 6 5 4 3 4 5 6 6 5 5 4 11 16 21 18 19 22 22 19 19 16 28 26 27 24 22 13 16 13 12 8
4 3 2 3 8 6 4 3 3 4 1 3 7 6 4 3 2 5 7 6 5 9 10 5 4 4 13 20 17 16 22 16 16 17 16 21 27 24 21 16 11 15 13 12 12
2 2 4 4 8 6 6 8 4 5 4 7 6 5 3 5 1 2 4 3 1 2 11 5 3 3 7 12 20 7 2 8 11 13 11 10 18 15 14 13 10 7 9 12 11
Wind_Direction
345 342 345 336 314 250 245 253 252 255 265 283 294 300 312 318 183 184 223 208 244 165 234 221 219 204 201 217 243 249 250 237 235 241 249 258 224 231 242 261 209 208 264 65 84
340 336 337 341 337 298 246 247 247 248 258 270 286 293 300 308 237 220 226 205 192 187 223 223 208 197 198 203 205 227 230 240 247 249 245 265 218 232 216 227 237 218 214 157 166
338 335 328 335 338 330 276 243 246 241 243 249 270 283 287 296 259 241 207 224 222 215 239 228 245 214 219 210 210 222 248 241 250 308 288 272 236 257 251 253 223 224 216 166 205
333 327 328 320 326 331 319 247 229 234 228 226 244 277 283 249 236 70 97 216 235 217 230 204 211 209 215 203 219 238 254 260 283 234 252 251 262 250 246 252 266 253 296 269 244
327 324 316 317 314 321 324 317 223 216 216 207 210 252 234 217 253 117 260 203 221 193 212 191 206 211 216 208 210 238 258 243 268 262 259 266 261 263 260 255 259 272 254 254 255
324 324 318 319 317 315 317 312 242 213 208 196 192 211 237 235 43 139 246 233 211 189 204 215 237 234 281 236 211 333 270 274 254 258 250 259 260 255 246 250 256 257 254 249 248
321 318 314 315 310 307 312 313 260 220 202 189 183 208 242 227 107 206 238 246 241 204 191 208 240 197 176 254 234 272 264 264 248 242 238 254 261 250 250 251 252 247 244 246 249
316 316 312 313 310 307 304 307 314 215 194 184 188 201 250 96 259 208 212 200 184 178 222 173 157 247 235 99 201 236 243 257 136 232 233 221 262 255 227 238 245 247 248 250 248
313 317 312 307 309 303 299 304 289 224 182 172 189 217 238 130 206 193 205 185 157 148 144 156 170 175 212 231 231 216 257 216 248 194 245 206 279 278 195 276 266 245 246 249 245
311 313 305 300 301 307 305 307 287 181 180 178 237 199 200 198 149 165 195 172 157 147 129 163 177 175 205 213 221 236 218 247 260 164 230 264 270 273 275 269 263 262 255 252 250
311 310 305 299 303 315 312 331 220 169 198 192 178 149 133 116 145 171 176 175 170 174 165 188 206 214 224 230 258 281 284 279 278 290 282 276 275 276 274 266 261 258 255 253 251
312 305 303 305 308 309 288 239 300 293 158 230 165 119 137 167 136 165 176 171 186 185 153 163 228 235 248 267 251 253 264 266 278 288 294 292 285 286 270 259 256 252 250 252 252
313 316 304 308 310 290 252 224 281 346 212 178 171 167 163 183 168 169 194 197 195 199 201 208 123 246 237 225 232 240 258 278 286 303 291 283 285 259 263 250 249 244 247 251 252
318 310 311 318 295 252 245 253 238 93 190 155 193 207 158 165 183 164 196 170 199 209 194 230 225 216 218 231 233 260 271 273 279 291 280 87 294 283 289 274 229 230 242 243 245
319 311 300 283 288 278 11 11 121 77 190 146 143 137 168 177 124 175 191 193 193 195 169 195 217 216 231 228 229 244 332 268 282 287 310 254 247 273 222 255 236 231 243 238 246
323 313 293 248 232 241 40 0 91 218 161 134 130 167 161 182 149 144 178 234 302 212 218 256 138 219 211 220 225 80 265 259 264 272 255 243 225 276 272 280 270 270 222 261 283
331 321 316 141 186 187 160 17 138 258 158 138 156 159 161 171 155 166 177 189 180 169 211 230 228 212 232 228 203 214 212 267 209 206 251 317 217 241 288 302 301 277 231 305 290
339 322 255 180 187 128 134 124 235 137 124 155 136 151 165 164 182 173 178 192 220 214 149 198 196 200 172 215 190 207 207 227 263 245 293 304 251 243 246 272 269 264 264 282 289
336 306 1 181 149 134 172 209 24 142 135 136 136 144 136 179 154 176 195 198 205 200 210 188 247 153 172 195 212 174 208 246 281 279 277 248 271 272 265 270 267 236 248 276 285
324 291 52 132 139 121 194 200 347 77 139 144 129 179 154 172 164 180 177 198 199 206 222 4 241 186 165 223 226 217 331 172 206 270 267 255 267 263 262 274 279 264 198 246 306
131 331 112 131 111 72 125 167 114 138 139 229 143 148 167 169 182 182 184 132 201 192 196 202 222 128 136 208 202 195 225 228 310 230 275 295 268 319 298 321 307 203 219 269 294
83 88 156 174 88 232 148 221 144 149 50 114 131 147 154 169 166 178 171 72 185 190 183 203 216 246 240 246 222 227 216 221 232 230 233 264 271 294 293 281 260 270 247 267 299
49 104 210 337 164 160 91 90 124 142 20 130 119 114 135 152 157 176 179 94 165 178 177 158 211 279 230 206 230 232 246 247 243 273 253 266 263 6 344 288 278 248 272 266 292
130 87 318 282 267 130 110 97 98 8 65 87 103 123 123 144 41 158 154 138 175 198 71 211 224 239 279 328 350 232 248 251 243 254 267 248 270 275 280 264 268 262 290 273 320
12 70 188 165 183 83 111 71 138 131 81 71 88 112 115 130 137 173 170 145 165 182 174 207 243 260 268 275 281 270 271 272 259 251 250 277 281 284 294 298 280 268 271 290 279
10 345 326 143 153 139 86 130 177 115 52 91 115 112 78 102 86 167 177 205 207 170 200 209 258 307 281 274 265 286 286 287 267 265 259 256 268 282 273 272 302 288 270 253 255
335 302 285 172 184 176 179 176 160 156 57 63 105 128 99 64 69 42 304 312 113 172 202 196 221 282 270 317 308 263 286 277 282 284 266 275 283 304 297 297 322 336 320 305 294